Helicity
56 19 33 51 85 69 26 26 62 57 192 201 236 247 207 124 132 120 39 20 44 24 66 94 107 110 113 121 122 131 109 96 99 108 130 141 141 137 115 126 117 95 79 77 61 68 79 96 106
32 28 59 105 101 68 57 92 -28 70 148 184 173 141 129 181 90 51 58 -9 35 60 78 105 119 137 150 130 116 100 102 110 122 110 114 136 117 107 92 85 93 79 82 75 55 63 70 83 86
41 46 110 101 95 71 19 -29 99 138 90 89 94 81 107 165 104 77 60 69 82 140 113 109 133 148 164 155 133 112 95 116 123 113 120 119 100 109 100 78 76 73 77 75 55 59 66 90 110
73 102 96 126 11 -38 52 25 54 85 81 93 102 123 89 122 113 116 99 77 97 120 132 103 109 136 144 164 143 131 119 125 146 136 141 103 91 104 109 90 65 62 66 64 57 60 52 76 70
118 134 116 109 35 -19 -89 -36 123 194 167 106 86 104 150 144 191 167 147 104 90 83 168 167 111 110 115 119 116 130 110 102 130 143 161 119 108 100 119 89 68 64 76 58 50 46 61 89 135
200 135 166 78 6 -14 18 136 144 142 179 176 149 139 157 145 145 187 143 134 167 154 147 157 109 63 67 67 92 133 116 70 101 128 171 160 117 97 114 68 71 88 90 69 45 56 87 106 169
151 138 112 72 32 35 -26 95 183 230 193 195 159 193 167 209 159 147 149 161 164 181 152 143 109 85 90 91 139 225 191 307 194 174 182 168 140 108 117 112 120 113 81 77 76 65 111 115 136
119 110 80 19 0 47 44 175 168 190 181 136 109 170 166 121 185 175 144 150 98 118 146 121 76 86 139 178 297 280 250 250 119 86 122 188 78 153 158 164 148 122 93 66 44 115 60 89 121
73 123 89 -2 -30 -67 -30 165 132 92 138 188 121 127 166 185 126 73 102 152 181 208 133 43 48 70 162 185 226 273 271 254 207 36 42 110 169 213 204 152 129 99 82 90 86 94 58 91 172
131 134 57 11 5 -19 -16 78 89 88 146 98 108 297 249 148 106 126 160 210 185 166 84 47 68 142 222 221 217 230 263 255 182 184 28 101 214 208 155 153 109 107 106 76 78 55 65 135 154
107 79 39 13 40 -25 21 47 26 59 97 53 160 161 172 162 163 136 151 130 135 143 83 59 91 166 229 198 186 210 168 126 126 118 90 139 199 212 178 162 120 145 97 86 104 82 91 102 92
119 67 50 41 72 55 60 17 45 72 75 53 121 89 136 120 139 134 156 153 165 134 115 82 122 138 151 195 149 104 121 144 150 169 220 207 228 234 255 194 123 121 120 122 78 69 70 58 105
86 77 56 36 80 95 40 34 51 90 88 72 151 183 125 110 153 178 210 205 215 232 177 117 121 146 157 135 147 121 85 118 115 235 221 149 194 218 232 203 200 167 104 73 57 72 46 85 116
67 65 54 34 14 21 35 21 83 57 62 60 162 165 143 205 168 209 238 184 168 227 212 142 98 156 162 127 88 101 102 50 80 125 48 114 203 195 228 185 131 108 56 46 42 70 34 71 102
97 83 30 43 0 5 14 7 9 97 41 -3 135 166 172 176 164 183 200 238 219 174 162 156 128 136 168 139 109 92 150 127 222 224 219 220 258 223 204 207 91 70 39 20 27 36 26 72 52
139 76 69 17 31 17 54 -16 -17 54 48 62 98 173 170 181 210 157 200 300 271 196 155 157 157 176 115 119 112 125 108 109 181 229 210 235 250 223 239 195 95 61 12 25 21 11 64 74 68
134 81 103 55 32 6 22 3 41 33 -3 16 186 167 187 249 241 176 283 346 309 209 168 172 155 178 122 123 88 101 121 124 164 216 202 175 155 139 147 152 70 56 13 44 46 45 87 91 78
130 115 64 18 19 25 -18 -20 30 32 34 117 147 123 247 281 248 263 324 367 323 215 175 171 155 152 115 40 41 108 133 129 186 227 180 151 155 118 124 99 55 31 18 60 100 82 99 91 75
112 125 94 44 98 19 9 -3 42 80 66 122 112 108 189 310 200 296 367 415 358 266 202 173 156 179 165 144 73 79 104 259 330 202 181 193 110 127 167 133 85 82 66 93 95 101 101 94 104
10 60 33 112 89 105 56 49 78 63 49 143 151 162 120 245 304 430 460 430 370 278 207 206 173 175 153 112 98 110 143 124 114 219 189 105 190 174 274 257 158 130 135 186 135 147 160 91 119
-52 73 67 103 113 13 57 57 47 41 -18 11 118 175 128 316 378 437 438 409 349 287 208 201 177 177 161 154 142 163 239 252 203 220 106 98 173 213 295 279 161 146 66 30 96 140 124 102 71
55 77 83 128 127 109 3 45 52 57 33 -44 67 164 102 304 365 396 444 347 337 278 229 209 178 188 167 200 154 168 189 202 187 168 96 46 106 318 235 192 74 15 19 121 147 156 165 166 48
180 113 135 116 241 70 34 6 -27 -17 -46 40 1 143 180 309 448 399 391 347 308 326 262 228 195 202 170 181 178 160 144 122 172 127 38 102 132 166 171 226 91 56 107 110 100 114 74 130 47
154 216 221 178 111 59 35 47 -60 5 41 21 43 171 195 298 356 323 303 351 264 297 290 238 202 178 175 168 194 193 159 118 92 77 97 46 52 43 167 229 216 139 -98 -103 -29 17 93 134 57
117 294 201 146 149 104 63 85 -16 -10 8 38 25 149 155 278 301 316 328 308 289 320 283 264 207 172 170 182 181 198 177 139 153 146 135 75 75 120 82 84 157 126 -39 -74 -1 92 159 97 -13
156 272 292 210 170 100 42 82 25 37 107 19 49 86 82 260 259 249 242 272 292 339 298 254 237 191 143 169 190 192 192 154 119 145 129 106 138 148 103 83 9 -15 -35 -70 -59 -13 41 49 3
130 191 65 155 233 243 147 149 20 89 76 73 83 110 109 139 177 147 247 270 268 332 358 289 262 234 178 140 167 183 194 199 184 139 125 118 165 137 111 66 50 4 -28 71 0 -13 37 197 80
101 58 134 148 232 173 174 114 109 118 100 173 127 182 125 94 126 161 150 213 294 354 406 336 272 257 219 163 120 140 176 183 152 153 180 153 149 143 120 112 81 61 5 -13 -7 18 48 113 55
39 102 126 119 197 281 273 217 198 234 372 356 285 199 210 198 166 94 109 207 275 360 427 376 304 235 223 191 163 120 140 147 138 152 165 165 127 132 148 114 74 56 45 68 73 64 66 63 85
64 82 121 189 182 138 111 214 130 203 228 297 335 281 265 300 294 314 388 210 138 329 364 379 338 290 245 215 189 171 155 151 146 142 142 148 138 114 132 129 108 82 48 5 46 115 121 139 122
Wind_Speed
23 22 28 34 34 29 28 25 25 29 27 31 32 35 35 40 35 30 20 30 25 21 18 13 10 10 11 15 8 6 8 7 5 6 9 9 9 10 9 11 14 15 16 20 19 20 20 23 24
18 20 28 34 31 34 35 30 15 24 25 31 35 36 32 30 30 22 27 26 29 17 14 11 6 6 11 14 13 13 11 10 8 8 9 11 10 10 12 12 15 17 17 15 16 19 22 26 28
20 23 31 31 31 27 23 33 24 20 23 30 36 38 24 21 24 22 23 27 29 23 11 9 5 4 9 12 15 15 16 16 13 14 11 11 11 15 14 14 16 17 17 13 14 17 20 21 21
21 25 32 34 29 27 22 30 21 23 29 28 30 35 30 25 24 21 23 27 31 28 20 6 3 3 10 15 18 19 17 20 19 18 17 15 17 16 16 15 13 14 14 15 13 19 18 19 26
25 32 36 38 37 30 40 47 22 24 25 24 25 31 27 29 22 23 29 32 29 27 24 6 5 4 13 17 20 21 22 24 25 25 21 21 22 20 18 16 12 13 13 13 15 17 15 19 14
30 31 42 44 41 46 64 41 23 26 31 36 38 22 27 13 20 24 30 34 37 28 22 9 3 5 8 17 20 23 23 24 28 30 27 26 23 21 19 15 14 12 13 14 17 15 13 11 11
35 43 48 51 52 71 68 34 20 24 29 37 30 28 21 19 18 23 30 35 33 27 24 12 7 5 11 13 20 24 25 27 35 34 29 29 26 27 16 14 14 13 15 16 17 15 12 9 7
37 45 59 58 58 73 64 26 22 26 34 21 25 31 20 13 17 27 33 35 30 24 22 16 12 10 12 13 12 15 22 22 38 53 59 25 31 22 16 13 16 16 15 16 17 13 12 8 7
41 58 59 56 55 65 66 42 34 28 30 28 24 24 14 8 15 27 32 34 37 28 22 19 13 5 6 3 5 12 19 23 32 70 62 29 19 15 17 16 17 18 16 16 13 13 12 10 4
42 56 59 66 81 72 69 39 35 38 28 37 34 21 12 12 17 30 35 31 32 29 22 21 18 12 6 1 5 8 14 17 19 22 78 34 24 15 18 21 22 17 16 15 14 15 12 9 5
54 60 71 88 86 76 80 61 44 31 39 38 22 10 9 13 22 28 32 27 29 24 22 22 20 16 14 9 1 6 13 11 12 6 50 30 23 18 16 18 16 15 16 15 16 15 17 12 7
63 69 76 90 87 84 81 70 53 47 47 34 21 6 11 12 16 22 27 25 25 25 22 22 20 19 18 17 6 5 1 14 9 42 40 30 21 17 18 15 17 20 22 17 16 15 17 13 6
73 77 84 89 88 89 84 78 65 58 54 31 18 17 13 12 14 19 22 24 28 25 24 21 19 19 17 20 16 11 6 1 25 34 37 28 17 18 22 16 18 19 19 18 17 16 17 12 8
66 78 88 87 86 87 86 77 53 61 61 61 21 15 15 15 12 16 18 20 21 24 24 20 17 17 16 21 22 19 12 23 26 30 34 29 21 19 19 19 18 18 19 20 19 19 17 11 10
72 85 87 90 86 86 79 88 82 44 56 60 20 10 7 12 13 9 12 16 17 22 22 21 19 19 18 19 21 17 5 19 15 29 30 31 24 21 21 22 24 21 20 23 20 22 17 13 9
63 67 82 78 76 77 61 88 77 54 62 60 28 8 2 5 6 8 9 14 19 21 21 22 22 24 25 28 23 13 13 17 14 23 24 28 26 24 23 24 27 24 22 23 23 25 20 18 10
58 81 80 76 76 81 76 84 76 69 76 69 23 13 7 4 5 9 11 12 16 18 21 20 22 24 23 26 27 14 13 12 14 19 27 26 24 25 24 26 27 25 24 25 24 27 18 15 10
73 72 70 74 73 73 82 85 80 66 58 23 14 18 9 13 10 8 12 13 15 18 21 21 22 25 24 26 20 14 6 10 17 23 29 29 26 25 25 29 28 27 26 24 27 26 22 18 12
62 76 80 82 69 70 74 87 82 45 52 21 21 13 8 17 17 9 11 15 16 17 19 20 22 24 22 22 24 13 13 4 19 26 31 30 27 22 25 27 26 23 30 29 30 21 23 20 15
50 80 90 79 70 55 60 65 65 58 54 22 20 15 11 14 19 13 12 15 16 17 19 22 23 25 23 23 20 18 19 13 27 30 33 35 28 23 24 24 29 17 28 24 28 22 22 22 18
33 89 84 80 71 74 70 73 60 69 74 71 20 21 18 18 23 15 14 17 17 18 19 22 24 26 26 26 26 22 24 25 24 31 32 34 28 21 22 20 29 24 22 32 22 22 20 18 27
94 77 81 79 78 78 61 68 67 63 73 76 58 15 24 16 26 21 19 19 18 19 20 22 25 27 30 31 34 38 33 29 29 38 24 30 27 22 23 28 32 34 24 24 28 26 25 20 23
76 72 74 77 84 81 82 74 69 65 66 72 26 19 21 23 27 28 24 23 18 20 21 21 23 26 30 34 36 39 41 47 38 38 36 15 28 30 29 33 29 28 24 25 23 26 25 21 25
70 64 75 81 77 89 78 72 64 68 62 51 58 25 24 14 27 29 23 20 19 16 18 19 22 26 28 34 38 41 43 48 54 54 40 37 39 43 31 30 27 28 57 53 31 35 26 22 23
72 71 60 62 54 67 60 72 81 68 67 55 46 16 23 15 25 24 22 19 17 16 17 19 23 24 28 31 35 43 44 47 48 47 52 54 47 25 38 36 26 25 46 50 33 28 27 26 33
55 71 55 58 56 62 66 68 68 72 71 61 22 16 3 13 22 23 24 17 18 16 17 19 22 23 26 31 34 38 40 44 45 47 50 51 51 55 60 56 56 55 50 59 53 46 40 44 50
56 92 64 63 61 55 52 54 74 59 56 17 18 10 4 12 16 20 20 16 19 17 18 21 20 20 25 26 30 34 35 35 40 43 49 52 53 53 41 51 53 57 56 30 44 47 47 39 33
69 46 67 48 56 63 51 51 40 39 20 21 15 7 5 2 2 17 18 18 15 18 18 14 17 18 21 20 23 27 32 34 36 39 44 50 52 54 52 45 49 52 53 46 42 41 41 36 45
53 44 53 52 55 49 46 38 28 16 13 9 5 12 12 11 18 10 6 12 14 10 10 11 9 12 16 24 22 20 25 29 32 35 40 44 48 52 55 50 47 45 43 49 50 48 44 46 48
59 55 50 58 54 54 51 50 37 23 15 13 14 18 20 20 23 29 37 27 7 9 4 9 9 9 12 18 23 28 23 29 32 38 39 40 45 49 50 56 50 49 48 49 52 50 42 42 45
Wind_Direction
342 349 348 344 344 344 338 347 345 333 345 6 354 341 342 335 334 327 31 356 15 30 35 50 73 103 111 121 138 166 193 187 166 149 129 119 109 102 95 97 99 101 100 95 92 93 94 92 88
339 345 342 334 332 330 334 345 324 354 3 4 339 336 337 341 2 17 353 357 358 12 21 29 62 117 135 135 141 150 172 183 180 175 153 128 126 117 108 107 109 108 106 100 98 97 98 97 92
329 326 323 325 323 315 322 348 359 1 5 350 336 339 345 342 354 7 12 5 358 6 21 10 17 164 169 167 156 163 161 164 177 167 161 160 140 126 126 117 113 115 107 114 108 108 106 100 91
323 320 316 309 302 308 286 315 329 347 348 356 345 338 348 348 351 12 20 21 17 1 13 72 68 194 196 184 181 179 183 172 172 167 165 157 143 139 131 129 128 123 122 120 127 114 112 103 95
309 309 298 302 302 305 303 309 320 331 352 358 348 338 343 334 14 13 358 3 18 14 6 63 134 138 188 196 196 192 189 184 180 172 166 161 142 131 132 134 141 134 142 133 136 133 122 107 101
293 299 295 292 296 294 295 277 294 314 321 322 322 339 336 29 16 6 0 359 2 11 14 42 20 159 191 203 210 214 209 206 200 189 173 166 157 139 141 160 147 149 159 163 176 169 151 138 90
279 285 286 290 293 290 293 318 309 320 323 322 331 334 341 351 7 8 1 359 1 9 0 9 354 317 311 269 259 265 258 272 247 222 176 165 163 135 152 167 161 158 185 178 184 173 161 139 96
276 281 282 284 288 283 286 317 321 322 315 335 337 326 331 347 1 356 354 359 5 16 8 8 344 320 305 304 258 249 259 262 256 233 245 178 149 138 136 146 166 174 183 183 183 175 178 153 112
272 273 274 277 280 262 295 302 310 318 308 314 324 323 332 38 3 354 355 359 359 11 24 18 12 3 326 284 261 266 272 267 261 246 233 198 186 142 131 127 176 163 167 183 179 169 161 172 148
259 268 267 269 255 268 287 306 306 308 304 301 314 349 47 22 2 350 352 1 0 5 29 29 19 24 46 130 245 265 265 270 255 243 233 218 199 178 130 136 135 155 163 175 168 176 182 181 187
265 263 268 256 254 272 275 294 304 315 297 304 315 16 40 8 346 349 355 6 11 31 50 46 38 39 55 78 299 281 273 269 287 228 204 174 161 160 147 142 153 173 179 189 189 193 214 199 207
267 265 264 251 254 263 268 285 292 297 295 314 322 57 355 6 357 354 3 16 25 37 56 64 56 54 70 77 65 115 349 292 274 231 193 173 175 164 186 178 164 201 206 188 190 170 204 190 219
265 264 261 254 258 259 264 273 282 283 292 317 327 342 353 11 15 8 15 9 12 27 46 62 81 72 77 90 88 106 112 326 112 163 179 192 172 154 188 183 193 199 200 187 171 180 179 194 245
270 267 256 255 259 260 259 268 285 278 281 281 301 324 337 357 24 12 23 23 17 22 28 56 96 92 89 100 103 95 108 111 125 160 159 163 190 187 174 183 171 182 182 188 182 198 192 203 248
270 262 259 256 258 257 263 259 252 284 280 273 288 302 341 6 6 29 30 27 35 26 40 52 96 103 106 111 108 105 221 126 147 221 191 170 192 187 169 165 159 165 188 173 198 215 206 219 244
272 270 258 256 259 258 265 242 255 277 272 272 282 240 260 11 37 45 48 33 28 30 38 63 81 106 112 120 113 106 117 137 144 209 184 191 180 194 194 170 167 166 179 190 211 226 213 227 222
268 253 254 257 256 248 259 239 250 264 255 268 262 219 218 167 100 67 57 48 39 42 47 66 85 102 106 117 122 115 134 154 179 198 199 202 187 193 197 194 185 179 184 208 215 217 210 202 218
254 257 256 250 247 252 250 239 247 261 272 286 266 294 217 174 156 100 83 58 49 60 58 79 88 104 107 125 123 124 151 178 201 188 191 202 202 196 193 195 183 185 183 197 217 211 227 216 197
268 254 251 250 257 263 264 235 245 270 273 266 265 270 251 171 158 120 88 75 67 58 55 78 96 104 107 114 134 140 162 266 203 194 194 198 199 198 184 203 195 204 186 209 202 199 221 222 216
262 254 244 252 257 268 268 262 259 267 270 262 232 224 229 171 148 128 96 88 91 84 81 88 95 107 110 116 122 126 128 138 154 172 204 210 218 198 197 202 190 215 180 210 199 213 235 240 224
242 243 241 245 255 263 271 253 264 257 257 259 246 205 200 172 155 144 129 116 99 96 98 102 105 110 110 102 100 89 88 98 126 150 175 202 210 201 200 189 182 181 177 169 191 219 228 231 256
232 250 245 248 257 258 271 262 263 260 247 237 268 229 184 177 161 154 144 127 118 111 102 102 107 109 116 111 113 120 115 113 125 138 166 208 197 195 186 177 173 175 201 228 235 230 236 244 248
250 252 251 256 260 261 256 261 260 266 267 227 191 198 185 176 167 160 154 145 119 114 113 105 111 113 121 125 125 129 131 136 125 136 141 206 221 215 204 226 184 187 216 228 213 229 193 244 252
252 253 252 253 263 251 254 259 264 255 257 280 273 220 194 193 168 161 150 137 128 113 114 110 115 122 123 132 136 139 138 141 146 151 152 150 158 170 188 185 195 207 177 176 180 183 201 209 245
244 242 253 255 258 259 263 259 241 255 257 272 300 224 194 196 165 156 148 140 136 128 127 122 126 130 133 137 142 150 149 153 158 160 164 166 161 172 174 181 214 204 183 185 193 212 217 211 202
250 241 247 258 263 267 258 258 253 240 230 265 295 313 118 178 160 154 153 147 144 135 132 135 134 137 143 147 148 152 155 161 165 167 168 171 172 174 177 180 185 185 183 188 188 192 194 195 198
259 233 244 269 269 268 262 270 248 256 268 278 303 332 122 150 150 154 153 147 144 144 141 144 141 138 149 152 152 156 157 161 167 170 174 178 178 179 175 183 187 190 192 229 195 196 199 255 230
252 258 242 258 256 255 265 261 267 271 260 284 295 347 271 239 278 144 146 146 145 152 153 145 150 149 152 158 162 162 167 166 169 171 176 181 184 186 187 186 189 192 197 201 204 210 214 225 214
253 250 248 254 258 262 264 265 274 316 296 329 26 23 22 29 11 349 189 164 164 154 162 166 164 160 163 166 173 172 174 176 176 179 182 185 188 191 193 193 195 199 204 206 208 211 218 220 222
263 252 249 246 253 260 265 261 277 291 320 4 43 27 31 32 14 17 18 338 285 168 203 188 194 194 186 179 178 182 180 182 184 189 188 189 192 193 195 198 200 204 207 209 214 217 226 230 232